Mineralnyye Vody Airport

Jump to: basic info | weather | frequencies | runways | comments

Related pages: nearby airports | nearby navaids | notams | map

Basic information (top)

Codes: MRV URMM
Location: lon 44.225101, lat 43.081902, elev 1,054 ft / 321 m msl
Status: medium_airport
Scheduled airline service: yes
Links: Wikipedia Mobile

Weather (top)

Current conditions (rec'd 2015/01/26 02:00Z):

URMM 260200Z 00000MPS 1800 -DZ BR OVC004 00/M00 Q1021 R12/290250 NOSIG RMK QBB120 MT OBSC QFE737/0983

Airport forecast (rec'd 2015/01/25 00:21Z):

TAF URMM 252252Z 2600/2624 10004G09MPS 2100 BR OVC004 620040 530001 
      TEMPO 2600/2609 VRB02MPS 0300 FZDZ FZFG OVC002 640000 
     FM260900 29003G08MPS 5000 BR OVC010 
      TEMPO 2609/2624 2100 -SN BKN004 OVC007

Frequencies (top)

Verify before use: may be inaccurate or out of date.

APP: 119.3 MHz (APP)
ATIS: 127.4 MHz (ATIS)
GND: 121.9 MHz (TAXIING)
RDR: 120.7 MHz (KRUG)
TWR: 128 MHz (START)

Runways (top)

12/30: 12,795 x 197 ft (3,900 x 60 m) — paved — lighted

Latest comments (top)

No comments yet for Mineralnyye Vody Airport

More... (top)

See also NOTAMs and nearby airports and navaids, or visit the Mineralnyye Vody Airport page at the main OurAirports website..